Year,Month,Day,Hour,Minute,Value (Times are PST for temperature in C)
2020,11,25,00,00,3.80
2020,11,25,00,01,3.70
2020,11,25,00,02,3.70
2020,11,25,00,03,3.70
2020,11,25,00,04,3.70
2020,11,25,00,05,3.70
2020,11,25,00,06,3.70
2020,11,25,00,07,3.60
2020,11,25,00,08,3.60
2020,11,25,00,09,3.60
2020,11,25,00,10,3.60
2020,11,25,00,11,3.60
2020,11,25,00,12,3.60
2020,11,25,00,13,3.50
2020,11,25,00,14,3.50
2020,11,25,00,15,3.50
2020,11,25,00,16,3.50
2020,11,25,00,17,3.50
2020,11,25,00,18,3.40
2020,11,25,00,19,3.40
2020,11,25,00,20,3.40
2020,11,25,00,21,3.40
2020,11,25,00,22,3.40
2020,11,25,00,23,3.40
2020,11,25,00,24,3.40
2020,11,25,00,25,3.40
2020,11,25,00,26,3.30
2020,11,25,00,27,3.30
2020,11,25,00,28,3.30
2020,11,25,00,29,3.30
2020,11,25,00,30,3.30
2020,11,25,00,31,3.30
2020,11,25,00,32,3.30
2020,11,25,00,33,3.30
2020,11,25,00,34,3.30
2020,11,25,00,35,3.30
2020,11,25,00,36,3.30
2020,11,25,00,37,3.30
2020,11,25,00,38,3.30
2020,11,25,00,39,3.30
2020,11,25,00,40,3.30
2020,11,25,00,41,3.30
2020,11,25,00,42,3.30
2020,11,25,00,43,3.30
2020,11,25,00,44,3.30
2020,11,25,00,45,3.30
2020,11,25,00,46,3.30
2020,11,25,00,47,3.30
2020,11,25,00,48,3.30
2020,11,25,00,49,3.30
2020,11,25,00,50,3.30
2020,11,25,00,51,3.30
2020,11,25,00,52,3.30
2020,11,25,00,53,3.30
2020,11,25,00,54,3.30
2020,11,25,00,55,3.30
2020,11,25,00,56,3.30
2020,11,25,00,57,3.30
2020,11,25,00,58,3.30
2020,11,25,00,59,3.30
2020,11,25,01,00,3.30
2020,11,25,01,01,3.30
2020,11,25,01,02,3.30
2020,11,25,01,03,3.30
2020,11,25,01,04,3.30
2020,11,25,01,05,3.30
2020,11,25,01,06,3.40
2020,11,25,01,07,3.40
2020,11,25,01,08,3.40
2020,11,25,01,09,3.40
2020,11,25,01,10,3.40
2020,11,25,01,11,3.40
2020,11,25,01,12,3.50
2020,11,25,01,13,3.50
2020,11,25,01,14,3.50
2020,11,25,01,15,3.50
2020,11,25,01,16,3.60
2020,11,25,01,17,3.60
2020,11,25,01,18,3.60
2020,11,25,01,19,3.60
2020,11,25,01,20,3.60
2020,11,25,01,21,3.70
2020,11,25,01,22,3.70
2020,11,25,01,23,3.70
2020,11,25,01,24,3.70
2020,11,25,01,25,3.70
2020,11,25,01,26,3.70
2020,11,25,01,27,3.70
2020,11,25,01,28,3.80
2020,11,25,01,29,3.80
2020,11,25,01,30,3.80
2020,11,25,01,31,3.80
2020,11,25,01,32,3.80
2020,11,25,01,33,3.80
2020,11,25,01,34,3.80
2020,11,25,01,35,3.80
2020,11,25,01,36,3.80
2020,11,25,01,37,3.80
2020,11,25,01,38,3.80
2020,11,25,01,39,3.80
2020,11,25,01,40,3.80
2020,11,25,01,41,3.90
2020,11,25,01,42,3.90
2020,11,25,01,43,3.90
2020,11,25,01,44,3.90
2020,11,25,01,45,3.90
2020,11,25,01,46,3.90
2020,11,25,01,47,3.90
2020,11,25,01,48,3.90
2020,11,25,01,49,3.90
2020,11,25,01,50,3.90
2020,11,25,01,51,3.90
2020,11,25,01,52,3.90
2020,11,25,01,53,3.90
2020,11,25,01,54,3.90
2020,11,25,01,55,3.90
2020,11,25,01,56,3.90
2020,11,25,01,57,3.90
2020,11,25,01,58,3.90
2020,11,25,01,59,3.90
2020,11,25,02,00,3.90
2020,11,25,02,01,3.90
2020,11,25,02,02,3.90
2020,11,25,02,03,3.90
2020,11,25,02,04,3.90
2020,11,25,02,05,3.90
2020,11,25,02,06,3.90
2020,11,25,02,07,3.90
2020,11,25,02,08,3.90
2020,11,25,02,09,3.90
2020,11,25,02,10,3.90
2020,11,25,02,11,3.90
2020,11,25,02,12,3.90
2020,11,25,02,13,3.90
2020,11,25,02,14,3.90
2020,11,25,02,15,3.90
2020,11,25,02,16,3.90
2020,11,25,02,17,3.90
2020,11,25,02,18,3.90
2020,11,25,02,19,3.90
2020,11,25,02,20,3.90
2020,11,25,02,21,3.90
2020,11,25,02,22,3.80
2020,11,25,02,23,3.80
2020,11,25,02,24,3.80
2020,11,25,02,25,3.90
2020,11,25,02,26,3.80
2020,11,25,02,27,3.80
2020,11,25,02,28,3.80
2020,11,25,02,29,3.80
2020,11,25,02,30,3.80
2020,11,25,02,31,3.80
2020,11,25,02,32,3.80
2020,11,25,02,33,3.80
2020,11,25,02,34,3.80
2020,11,25,02,35,3.80
2020,11,25,02,36,3.80
2020,11,25,02,37,3.80
2020,11,25,02,38,3.80
2020,11,25,02,39,3.80
2020,11,25,02,40,3.80
2020,11,25,02,41,3.80
2020,11,25,02,42,3.80
2020,11,25,02,43,3.80
2020,11,25,02,44,3.80
2020,11,25,02,45,3.80
2020,11,25,02,46,3.80
2020,11,25,02,47,3.70
2020,11,25,02,48,3.70
2020,11,25,02,49,3.70
2020,11,25,02,50,3.70
2020,11,25,02,51,3.70
2020,11,25,02,52,3.70
2020,11,25,02,53,3.70
2020,11,25,02,54,3.70
2020,11,25,02,55,3.70
2020,11,25,02,56,3.60
2020,11,25,02,57,3.60
2020,11,25,02,58,3.60
2020,11,25,02,59,3.60
2020,11,25,03,00,3.60
2020,11,25,03,01,3.60
2020,11,25,03,02,3.60
2020,11,25,03,03,3.60
2020,11,25,03,04,3.60
2020,11,25,03,05,3.60
2020,11,25,03,06,3.60
2020,11,25,03,07,3.60
2020,11,25,03,08,3.60
2020,11,25,03,09,3.60
2020,11,25,03,10,3.60
2020,11,25,03,11,3.60
2020,11,25,03,12,3.60
2020,11,25,03,13,3.60
2020,11,25,03,14,3.60
2020,11,25,03,15,3.60
2020,11,25,03,16,3.60
2020,11,25,03,17,3.60
2020,11,25,03,18,3.60
2020,11,25,03,19,3.60
2020,11,25,03,20,3.60
2020,11,25,03,21,3.60
2020,11,25,03,22,3.60
2020,11,25,03,23,3.50
2020,11,25,03,24,3.60
2020,11,25,03,25,3.50
2020,11,25,03,26,3.60
2020,11,25,03,27,3.60
2020,11,25,03,28,3.50
2020,11,25,03,29,3.50
2020,11,25,03,30,3.50
2020,11,25,03,31,3.50
2020,11,25,03,32,3.50
2020,11,25,03,33,3.50
2020,11,25,03,34,3.50
2020,11,25,03,35,3.50
2020,11,25,03,36,3.50
2020,11,25,03,37,3.40
2020,11,25,03,38,3.40
2020,11,25,03,39,3.40
2020,11,25,03,40,3.40
2020,11,25,03,41,3.40
2020,11,25,03,42,3.40
2020,11,25,03,43,3.40
2020,11,25,03,44,3.40
2020,11,25,03,45,3.40
2020,11,25,03,46,3.40
2020,11,25,03,47,3.40
2020,11,25,03,48,3.40
2020,11,25,03,49,3.30
2020,11,25,03,50,3.30
2020,11,25,03,51,3.30
2020,11,25,03,52,3.30
2020,11,25,03,53,3.30
2020,11,25,03,54,3.30
2020,11,25,03,55,3.30
2020,11,25,03,56,3.30
2020,11,25,03,57,3.30
2020,11,25,03,58,3.30
2020,11,25,03,59,3.30
2020,11,25,04,00,3.30
2020,11,25,04,01,3.30
2020,11,25,04,02,3.20
2020,11,25,04,03,3.20
2020,11,25,04,04,3.20
2020,11,25,04,05,3.20
2020,11,25,04,06,3.20
2020,11,25,04,07,3.20
2020,11,25,04,08,3.20
2020,11,25,04,09,3.20
2020,11,25,04,10,3.20
2020,11,25,04,11,3.20
2020,11,25,04,12,3.20
2020,11,25,04,13,3.20
2020,11,25,04,14,3.20
2020,11,25,04,15,3.20
2020,11,25,04,16,3.20
2020,11,25,04,17,3.20
2020,11,25,04,18,3.20
2020,11,25,04,19,3.20
2020,11,25,04,20,3.30
2020,11,25,04,21,3.20
2020,11,25,04,22,3.20
2020,11,25,04,23,3.20
2020,11,25,04,24,3.20
2020,11,25,04,25,3.20
2020,11,25,04,26,3.20
2020,11,25,04,27,3.20
2020,11,25,04,28,3.20
2020,11,25,04,29,3.20
2020,11,25,04,30,3.20
2020,11,25,04,31,3.20
2020,11,25,04,32,3.20
2020,11,25,04,33,3.20
2020,11,25,08,47,3.30
2020,11,25,08,48,3.30
2020,11,25,08,49,3.30
2020,11,25,08,50,3.40
2020,11,25,08,51,3.40
2020,11,25,08,52,3.50
2020,11,25,08,53,3.50
2020,11,25,08,54,3.50
2020,11,25,08,55,3.50
2020,11,25,08,56,3.50
2020,11,25,08,57,3.50
2020,11,25,08,58,3.50
2020,11,25,08,59,3.60
2020,11,25,09,00,3.60
2020,11,25,09,01,3.60
2020,11,25,09,02,3.60
2020,11,25,09,03,3.60
2020,11,25,09,04,3.60
2020,11,25,09,05,3.60
2020,11,25,09,06,3.60
2020,11,25,09,07,3.60
2020,11,25,09,08,3.60
2020,11,25,09,09,3.60
2020,11,25,09,10,3.60
2020,11,25,09,11,3.70
2020,11,25,09,12,3.70
2020,11,25,09,13,3.70
2020,11,25,09,14,3.70
2020,11,25,09,15,3.70
2020,11,25,09,16,3.80
2020,11,25,09,17,3.80
2020,11,25,09,18,3.80
2020,11,25,09,19,3.90
2020,11,25,09,20,3.90
2020,11,25,09,21,4.00
2020,11,25,09,22,4.10
2020,11,25,09,23,4.10
2020,11,25,09,24,4.10
2020,11,25,09,25,4.10
2020,11,25,09,26,4.20
2020,11,25,09,27,4.20
2020,11,25,09,28,4.20
2020,11,25,09,29,4.20
2020,11,25,09,30,4.30
2020,11,25,09,31,4.30
2020,11,25,09,32,4.30
2020,11,25,09,33,4.30
2020,11,25,09,34,4.30
2020,11,25,09,35,4.30
2020,11,25,09,36,4.30
2020,11,25,09,37,4.40
2020,11,25,09,38,4.40
2020,11,25,09,39,4.50
2020,11,25,09,40,4.60
2020,11,25,09,41,4.60
2020,11,25,09,42,4.70
2020,11,25,09,43,4.70
2020,11,25,09,44,4.70
2020,11,25,09,45,4.80
2020,11,25,09,46,4.80
2020,11,25,09,47,4.90
2020,11,25,09,48,4.90
2020,11,25,09,49,4.90
2020,11,25,09,50,4.90
2020,11,25,09,51,4.90
2020,11,25,09,52,4.80
2020,11,25,09,53,4.80
2020,11,25,09,54,4.80
2020,11,25,09,55,4.80
2020,11,25,09,56,4.70
2020,11,25,09,57,4.70
2020,11,25,09,58,4.70
2020,11,25,09,59,4.70
2020,11,25,10,00,4.70
2020,11,25,10,01,4.80
2020,11,25,10,02,4.80
2020,11,25,10,03,4.90
2020,11,25,10,04,5.00
2020,11,25,10,05,5.10
2020,11,25,10,06,5.10
2020,11,25,10,07,5.20
2020,11,25,10,08,5.20
2020,11,25,10,09,5.30
2020,11,25,10,10,5.30
2020,11,25,10,11,5.40
2020,11,25,10,12,5.40
2020,11,25,10,13,5.40
2020,11,25,10,14,5.40
2020,11,25,10,15,5.40
2020,11,25,10,16,5.50
2020,11,25,10,17,5.50
2020,11,25,10,18,5.50
2020,11,25,10,19,5.50
2020,11,25,10,20,5.50
2020,11,25,10,21,5.50
2020,11,25,10,22,5.50
2020,11,25,10,23,5.60
2020,11,25,10,24,5.60
2020,11,25,10,25,5.60
2020,11,25,10,26,5.60
2020,11,25,10,27,5.60
2020,11,25,10,28,5.70
2020,11,25,10,29,5.70
2020,11,25,10,30,5.80
2020,11,25,10,31,5.80
2020,11,25,10,32,5.90
2020,11,25,10,33,5.90
2020,11,25,10,34,5.90
2020,11,25,10,35,6.00
2020,11,25,10,36,6.00
2020,11,25,10,37,6.10
2020,11,25,10,38,6.10
2020,11,25,10,39,6.10
2020,11,25,10,40,6.10
2020,11,25,10,41,6.00
2020,11,25,10,42,6.00
2020,11,25,10,43,6.00
2020,11,25,10,44,6.00
2020,11,25,10,45,5.90
2020,11,25,10,46,5.90
2020,11,25,10,47,5.90
2020,11,25,10,48,5.90
2020,11,25,10,49,5.90
2020,11,25,10,50,6.00
2020,11,25,10,51,6.00
2020,11,25,10,52,6.10
2020,11,25,10,53,6.10
2020,11,25,10,54,6.20
2020,11,25,10,55,6.30
2020,11,25,10,56,6.30
2020,11,25,10,57,6.40
2020,11,25,10,58,6.50
2020,11,25,10,59,6.50
2020,11,25,11,00,6.60
2020,11,25,11,01,6.70
2020,11,25,11,02,6.70
2020,11,25,11,03,6.80
2020,11,25,11,04,6.80
2020,11,25,11,05,6.80
2020,11,25,11,06,6.80
2020,11,25,11,07,6.80
2020,11,25,11,08,6.80
2020,11,25,11,09,6.90
2020,11,25,11,10,6.90
2020,11,25,11,11,7.00
2020,11,25,11,12,7.00
2020,11,25,11,13,7.00
2020,11,25,11,14,7.10
2020,11,25,11,15,7.10
2020,11,25,11,16,7.10
2020,11,25,11,17,7.10
2020,11,25,11,18,7.10
2020,11,25,11,19,7.10
2020,11,25,11,20,7.20
2020,11,25,11,21,7.20
2020,11,25,11,22,7.10
2020,11,25,11,23,7.10
2020,11,25,11,24,7.10
2020,11,25,11,25,7.10
2020,11,25,11,26,7.10
2020,11,25,11,27,7.20
2020,11,25,11,28,7.20
2020,11,25,11,29,7.20
2020,11,25,11,30,7.20
2020,11,25,11,31,7.20
2020,11,25,11,32,7.20
2020,11,25,11,33,7.20
2020,11,25,11,34,7.20
2020,11,25,11,35,7.20
2020,11,25,11,36,7.20
2020,11,25,11,37,7.20
2020,11,25,11,38,7.30
2020,11,25,11,39,7.40
2020,11,25,11,40,7.50
2020,11,25,11,41,7.60
2020,11,25,11,42,7.60
2020,11,25,11,43,7.60
2020,11,25,11,44,7.60
2020,11,25,11,45,7.60
2020,11,25,11,46,7.50
2020,11,25,11,47,7.40
2020,11,25,11,48,7.40
2020,11,25,11,49,7.30
2020,11,25,11,50,7.30
2020,11,25,11,51,7.30
2020,11,25,11,52,7.20
2020,11,25,11,53,7.20
2020,11,25,11,54,7.20
2020,11,25,11,55,7.20
2020,11,25,11,56,7.20
2020,11,25,11,57,7.10
2020,11,25,11,58,7.10
2020,11,25,11,59,7.10
2020,11,25,12,00,7.20
2020,11,25,12,01,7.20
2020,11,25,12,02,7.20
2020,11,25,12,03,7.20
2020,11,25,12,04,7.20
2020,11,25,12,05,7.20
2020,11,25,12,06,7.30
2020,11,25,12,07,7.30
2020,11,25,12,08,7.30
2020,11,25,12,09,7.30
2020,11,25,12,10,7.30
2020,11,25,12,11,7.30
2020,11,25,12,12,7.30
2020,11,25,12,13,7.20
2020,11,25,12,14,7.20
2020,11,25,12,15,7.20
2020,11,25,12,16,7.20
2020,11,25,12,17,7.30
2020,11,25,12,18,7.30
2020,11,25,12,19,7.30
2020,11,25,12,20,7.30
2020,11,25,12,21,7.40
2020,11,25,12,22,7.40
2020,11,25,12,23,7.40
2020,11,25,12,24,7.40
2020,11,25,12,25,7.50
2020,11,25,12,26,7.50
2020,11,25,12,27,7.60
2020,11,25,12,28,7.70
2020,11,25,12,29,7.80
2020,11,25,12,30,7.80
2020,11,25,12,31,7.90
2020,11,25,12,32,7.90
2020,11,25,12,33,8.00
2020,11,25,12,34,8.00
2020,11,25,12,35,8.00
2020,11,25,12,36,8.00
2020,11,25,12,37,8.10
2020,11,25,12,38,8.10
2020,11,25,12,39,8.10
2020,11,25,12,40,8.20
2020,11,25,12,41,8.20
2020,11,25,12,42,8.20
2020,11,25,12,43,8.20
2020,11,25,12,44,8.20
2020,11,25,12,45,8.20
2020,11,25,12,46,8.20
2020,11,25,12,47,8.20
2020,11,25,12,48,8.10
2020,11,25,12,49,8.10
2020,11,25,12,50,8.00
2020,11,25,12,51,7.90
2020,11,25,12,52,7.90
2020,11,25,12,53,7.90
2020,11,25,12,54,7.90
2020,11,25,12,55,7.90
2020,11,25,12,56,7.90
2020,11,25,12,57,7.90
2020,11,25,12,58,7.90
2020,11,25,12,59,7.80
2020,11,25,13,00,7.80
2020,11,25,13,01,7.80
2020,11,25,13,02,7.70
2020,11,25,13,03,7.70
2020,11,25,13,04,7.70
2020,11,25,13,05,7.70
2020,11,25,13,06,7.70
2020,11,25,13,07,7.60
2020,11,25,13,08,7.60
2020,11,25,13,09,7.60
2020,11,25,13,10,7.60
2020,11,25,13,11,7.60
2020,11,25,13,12,7.50
2020,11,25,13,13,7.40
2020,11,25,13,14,7.40
2020,11,25,13,15,7.30
2020,11,25,13,16,7.30
2020,11,25,13,17,7.30
2020,11,25,13,18,7.30
2020,11,25,13,19,7.20
2020,11,25,13,20,7.20
2020,11,25,13,21,7.20
2020,11,25,13,22,7.20
2020,11,25,13,23,7.20
2020,11,25,13,24,7.20
2020,11,25,13,25,7.20
2020,11,25,13,26,7.20
2020,11,25,13,27,7.20
2020,11,25,13,28,7.20
2020,11,25,13,29,7.20
2020,11,25,13,30,7.20
2020,11,25,13,31,7.20
2020,11,25,13,32,7.20
2020,11,25,13,33,7.20
2020,11,25,13,34,7.20
2020,11,25,13,35,7.20
2020,11,25,13,36,7.20
2020,11,25,13,37,7.20
2020,11,25,13,38,7.30
2020,11,25,13,39,7.30
2020,11,25,13,40,7.30
2020,11,25,13,41,7.30
2020,11,25,13,42,7.30
2020,11,25,13,43,7.30
2020,11,25,13,44,7.30
2020,11,25,13,45,7.40
2020,11,25,13,46,7.40
2020,11,25,13,47,7.40
2020,11,25,13,48,7.40
2020,11,25,13,49,7.40
2020,11,25,13,50,7.40
2020,11,25,13,51,7.40
2020,11,25,13,52,7.40
2020,11,25,13,53,7.50
2020,11,25,13,54,7.50
2020,11,25,13,55,7.60
2020,11,25,13,56,7.60
2020,11,25,13,57,7.60
2020,11,25,13,58,7.60
2020,11,25,13,59,7.60
2020,11,25,14,00,7.70
2020,11,25,14,01,7.70
2020,11,25,14,02,7.70
2020,11,25,14,03,7.70
2020,11,25,14,04,7.70
2020,11,25,14,05,7.70
2020,11,25,14,06,7.60
2020,11,25,14,07,7.60
2020,11,25,14,08,7.60
2020,11,25,14,09,7.60
2020,11,25,14,10,7.60
2020,11,25,14,11,7.60
2020,11,25,14,12,7.60
2020,11,25,14,13,7.60
2020,11,25,14,14,7.60
2020,11,25,14,15,7.60
2020,11,25,14,16,7.60
2020,11,25,14,17,7.50
2020,11,25,14,18,7.50
2020,11,25,14,19,7.50
2020,11,25,14,20,7.50
2020,11,25,14,21,7.50
2020,11,25,14,22,7.50
2020,11,25,14,23,7.40
2020,11,25,14,24,7.40
2020,11,25,14,25,7.40
2020,11,25,14,26,7.40
2020,11,25,14,27,7.40
2020,11,25,14,28,7.50
2020,11,25,14,29,7.50
2020,11,25,14,30,7.50
2020,11,25,14,31,7.50
2020,11,25,14,32,7.50
2020,11,25,14,33,7.50
2020,11,25,14,34,7.60
2020,11,25,14,35,7.60
2020,11,25,14,36,7.60
2020,11,25,14,37,7.60
2020,11,25,14,38,7.60
2020,11,25,14,39,7.60
2020,11,25,14,40,7.60
2020,11,25,14,41,7.60
2020,11,25,14,42,7.60
2020,11,25,14,43,7.60
2020,11,25,14,44,7.60
2020,11,25,14,45,7.60
2020,11,25,14,46,7.60
2020,11,25,14,47,7.60
2020,11,25,14,48,7.60
2020,11,25,14,49,7.60
2020,11,25,14,50,7.60
2020,11,25,14,51,7.60
2020,11,25,14,52,7.60
2020,11,25,14,53,7.70
2020,11,25,14,54,7.70
2020,11,25,14,55,7.70
2020,11,25,14,56,7.70
2020,11,25,14,57,7.70
2020,11,25,14,58,7.70
2020,11,25,14,59,7.70
2020,11,25,15,00,7.70
2020,11,25,15,01,7.70
2020,11,25,15,02,7.70
2020,11,25,15,03,7.70
2020,11,25,15,04,7.70
2020,11,25,15,05,7.70
2020,11,25,15,06,7.70
2020,11,25,15,07,7.70
2020,11,25,15,08,7.70
2020,11,25,15,09,7.70
2020,11,25,15,10,7.70
2020,11,25,15,11,7.70
2020,11,25,15,12,7.70
2020,11,25,15,13,7.70
2020,11,25,15,14,7.70
2020,11,25,15,15,7.60
2020,11,25,15,16,7.60
2020,11,25,15,17,7.60
2020,11,25,15,18,7.60
2020,11,25,15,19,7.60
2020,11,25,15,20,7.60
2020,11,25,15,21,7.70
2020,11,25,15,22,7.70
2020,11,25,15,23,7.70
2020,11,25,15,24,7.70
2020,11,25,15,25,7.70
2020,11,25,15,26,7.60
2020,11,25,15,27,7.60
2020,11,25,15,28,7.60
2020,11,25,15,29,7.60
2020,11,25,15,30,7.60
2020,11,25,15,31,7.60
2020,11,25,15,32,7.60
2020,11,25,15,33,7.60
2020,11,25,15,34,7.50
2020,11,25,15,35,7.50
2020,11,25,15,36,7.50
2020,11,25,15,37,7.40
2020,11,25,15,38,7.40
2020,11,25,15,39,7.30
2020,11,25,15,40,7.30
2020,11,25,15,41,7.30
2020,11,25,15,42,7.20
2020,11,25,15,43,7.20
2020,11,25,15,44,7.20
2020,11,25,15,45,7.20
2020,11,25,15,46,7.10
2020,11,25,15,47,7.10
2020,11,25,15,48,7.10
2020,11,25,15,49,7.00
2020,11,25,15,50,7.00
2020,11,25,15,51,7.00
2020,11,25,15,52,6.90
2020,11,25,15,53,6.90
2020,11,25,15,54,6.90
2020,11,25,15,55,6.90
2020,11,25,15,56,6.80
2020,11,25,15,57,6.80
2020,11,25,15,58,6.80
2020,11,25,15,59,6.80
2020,11,25,16,00,6.70
2020,11,25,16,01,6.70
2020,11,25,16,02,6.70
2020,11,25,16,03,6.70
2020,11,25,16,04,6.70
2020,11,25,16,05,6.70
2020,11,25,16,06,6.60
2020,11,25,16,07,6.60
2020,11,25,16,08,6.60
2020,11,25,16,09,6.60
2020,11,25,16,10,6.60
2020,11,25,16,11,6.50
2020,11,25,16,12,6.50
2020,11,25,16,13,6.50
2020,11,25,16,14,6.50
2020,11,25,16,15,6.40
2020,11,25,16,16,6.40
2020,11,25,16,17,6.40
2020,11,25,16,18,6.40
2020,11,25,16,19,6.40
2020,11,25,16,20,6.40
2020,11,25,16,21,6.40
2020,11,25,16,22,6.40
2020,11,25,16,23,6.40
2020,11,25,16,24,6.40
2020,11,25,16,25,6.40
2020,11,25,16,26,6.30
2020,11,25,16,27,6.30
2020,11,25,16,28,6.30
2020,11,25,16,29,6.30
2020,11,25,16,30,6.30
2020,11,25,16,31,6.30
2020,11,25,16,32,6.30
2020,11,25,16,33,6.30
2020,11,25,16,34,6.30
2020,11,25,16,35,6.30
2020,11,25,16,36,6.30
2020,11,25,16,37,6.20
2020,11,25,16,38,6.20
2020,11,25,16,39,6.20
2020,11,25,16,40,6.20
2020,11,25,16,41,6.20
2020,11,25,16,42,6.20
2020,11,25,16,43,6.20
2020,11,25,16,44,6.20
2020,11,25,16,45,6.20
2020,11,25,16,46,6.20
2020,11,25,16,47,6.10
2020,11,25,16,48,6.10
2020,11,25,16,49,6.10
2020,11,25,16,50,6.10
2020,11,25,16,51,6.10
2020,11,25,16,52,6.10
2020,11,25,16,53,6.00
2020,11,25,16,54,6.00
2020,11,25,16,55,6.00
2020,11,25,16,56,6.00
2020,11,25,16,57,6.00
2020,11,25,16,58,5.90
2020,11,25,16,59,5.90
2020,11,25,17,00,5.90
2020,11,25,17,01,5.90
2020,11,25,17,02,5.90
2020,11,25,17,03,5.90
2020,11,25,17,04,5.80
2020,11,25,17,05,5.80
2020,11,25,17,06,5.80
2020,11,25,17,07,5.80
2020,11,25,17,08,5.80
2020,11,25,17,09,5.80
2020,11,25,17,10,5.80
2020,11,25,17,11,5.80
2020,11,25,17,12,5.80
2020,11,25,17,13,5.80
2020,11,25,17,14,5.80
2020,11,25,17,15,5.80
2020,11,25,17,16,5.80
2020,11,25,17,17,5.80
2020,11,25,17,18,5.80
2020,11,25,17,19,5.70
2020,11,25,17,20,5.70
2020,11,25,17,21,5.70
2020,11,25,17,22,5.70
2020,11,25,17,23,5.70
2020,11,25,17,24,5.70
2020,11,25,17,25,5.70
2020,11,25,17,26,5.70
2020,11,25,17,27,5.70
2020,11,25,17,28,5.70
2020,11,25,17,29,5.70
2020,11,25,17,30,5.70
2020,11,25,17,31,5.70
2020,11,25,17,32,5.60
2020,11,25,17,33,5.60
2020,11,25,17,34,5.60
2020,11,25,17,35,5.60
2020,11,25,17,36,5.60
2020,11,25,17,37,5.60
2020,11,25,17,38,5.60
2020,11,25,17,39,5.60
2020,11,25,17,40,5.60
2020,11,25,17,41,5.50
2020,11,25,17,42,5.50
2020,11,25,17,43,5.50
2020,11,25,17,44,5.50
2020,11,25,17,45,5.50
2020,11,25,17,46,5.40
2020,11,25,17,47,5.40
2020,11,25,17,48,5.40
2020,11,25,17,49,5.40
2020,11,25,17,50,5.40
2020,11,25,17,51,5.40
2020,11,25,17,52,5.40
2020,11,25,17,53,5.40
2020,11,25,17,54,5.40
2020,11,25,17,55,5.40
2020,11,25,17,56,5.40
2020,11,25,17,57,5.30
2020,11,25,17,58,5.30
2020,11,25,17,59,5.30
2020,11,25,18,00,5.30
2020,11,25,18,01,5.30
2020,11,25,18,02,5.30
2020,11,25,18,03,5.30
2020,11,25,18,04,5.30
2020,11,25,18,05,5.30
2020,11,25,18,06,5.30
2020,11,25,18,07,5.30
2020,11,25,18,08,5.30
2020,11,25,18,09,5.30
2020,11,25,18,10,5.30
2020,11,25,18,11,5.30
2020,11,25,18,12,5.30
2020,11,25,18,13,5.30
2020,11,25,18,14,5.20
2020,11,25,18,15,5.20
2020,11,25,18,16,5.20
2020,11,25,18,17,5.20
2020,11,25,18,18,5.20
2020,11,25,18,19,5.20
2020,11,25,18,20,5.20
2020,11,25,18,21,5.20
2020,11,25,18,22,5.20
2020,11,25,18,23,5.20
2020,11,25,18,24,5.20
2020,11,25,18,25,5.20
2020,11,25,18,26,5.20
2020,11,25,18,27,5.20
2020,11,25,18,28,5.20
2020,11,25,18,29,5.20
2020,11,25,18,30,5.20
2020,11,25,18,31,5.20
2020,11,25,18,32,5.20
2020,11,25,18,33,5.20
2020,11,25,18,34,5.20
2020,11,25,18,35,5.20
2020,11,25,18,36,5.20
2020,11,25,18,37,5.20
2020,11,25,18,38,5.20
2020,11,25,18,39,5.20
2020,11,25,18,40,5.20
2020,11,25,18,41,5.20
2020,11,25,18,42,5.20
2020,11,25,18,43,5.20
2020,11,25,18,44,5.20
2020,11,25,18,45,5.20
2020,11,25,18,46,5.10
2020,11,25,18,47,5.10
2020,11,25,18,48,5.10
2020,11,25,18,49,5.10
2020,11,25,18,50,5.10
2020,11,25,18,51,5.10
2020,11,25,18,52,5.10
2020,11,25,18,53,5.10
2020,11,25,18,54,5.10
2020,11,25,18,55,5.10
2020,11,25,18,56,5.10
2020,11,25,18,57,5.10
2020,11,25,18,58,5.10
2020,11,25,18,59,5.10
2020,11,25,19,00,5.10
2020,11,25,19,01,5.10
2020,11,25,19,02,5.10
2020,11,25,19,03,5.10
2020,11,25,19,04,5.10
2020,11,25,19,05,5.10
2020,11,25,19,06,5.10
2020,11,25,19,07,5.10
2020,11,25,19,08,5.10
2020,11,25,19,09,5.10
2020,11,25,19,10,5.10
2020,11,25,19,11,5.10
2020,11,25,19,12,5.10
2020,11,25,19,13,5.10
2020,11,25,19,14,5.10
2020,11,25,19,15,5.10
2020,11,25,19,16,5.10
2020,11,25,19,17,5.10
2020,11,25,19,18,5.10
2020,11,25,19,19,5.10
2020,11,25,19,20,5.10
2020,11,25,19,21,5.10
2020,11,25,19,22,5.10
2020,11,25,19,23,5.10
2020,11,25,19,24,5.10
2020,11,25,19,25,5.10
2020,11,25,19,26,5.10
2020,11,25,19,27,5.10
2020,11,25,19,28,5.10
2020,11,25,19,29,5.10
2020,11,25,19,30,5.10
2020,11,25,19,31,5.10
2020,11,25,19,32,5.10
2020,11,25,19,33,5.10
2020,11,25,19,34,5.10
2020,11,25,19,35,5.10
2020,11,25,19,36,5.10
2020,11,25,19,37,5.10
2020,11,25,19,38,5.10
2020,11,25,19,39,5.10
2020,11,25,19,40,5.10
2020,11,25,19,41,5.10
2020,11,25,19,42,5.10
2020,11,25,19,43,5.10
2020,11,25,19,44,5.10
2020,11,25,19,45,5.10
2020,11,25,19,46,5.10
2020,11,25,19,47,5.10
2020,11,25,19,48,5.10
2020,11,25,19,49,5.10
2020,11,25,19,50,5.10
2020,11,25,19,51,5.10
2020,11,25,19,52,5.10
2020,11,25,19,53,5.10
2020,11,25,19,54,5.10
2020,11,25,19,55,5.10
2020,11,25,19,56,5.10
2020,11,25,19,57,5.10
2020,11,25,19,58,5.10
2020,11,25,19,59,5.10
2020,11,25,20,00,5.10
2020,11,25,20,01,5.10
2020,11,25,20,02,5.10
2020,11,25,20,03,5.10
2020,11,25,20,04,5.10
2020,11,25,20,05,5.10
2020,11,25,20,06,5.10
2020,11,25,20,07,5.10
2020,11,25,20,08,5.10
2020,11,25,20,09,5.10
2020,11,25,20,10,5.10
2020,11,25,20,11,5.10
2020,11,25,20,12,5.10
2020,11,25,20,13,5.10
2020,11,25,20,14,5.10
2020,11,25,20,15,5.10
2020,11,25,20,16,5.10
2020,11,25,20,17,5.10
2020,11,25,20,18,5.10
2020,11,25,20,19,5.10
2020,11,25,20,20,5.10
2020,11,25,20,21,5.10
2020,11,25,20,22,5.10
2020,11,25,20,23,5.10
2020,11,25,20,24,5.10
2020,11,25,20,25,5.10
2020,11,25,20,26,5.10
2020,11,25,20,27,5.10
2020,11,25,20,28,5.10
2020,11,25,20,29,5.10
2020,11,25,20,30,5.10
2020,11,25,20,31,5.10
2020,11,25,20,32,5.10
2020,11,25,20,33,5.10
2020,11,25,20,34,5.10
2020,11,25,20,35,5.10
2020,11,25,20,36,5.10
2020,11,25,20,37,5.10
2020,11,25,20,38,5.10
2020,11,25,20,39,5.10
2020,11,25,20,40,5.10
2020,11,25,20,41,5.10
2020,11,25,20,42,5.10
2020,11,25,20,43,5.10
2020,11,25,20,44,5.10
2020,11,25,20,45,5.10
2020,11,25,20,46,5.10
2020,11,25,20,47,5.10
2020,11,25,20,48,5.10
2020,11,25,20,49,5.10
2020,11,25,20,50,5.10
2020,11,25,20,51,5.10
2020,11,25,20,52,5.10
2020,11,25,20,53,5.10
2020,11,25,20,54,5.10
2020,11,25,20,55,5.10
2020,11,25,20,56,5.10
2020,11,25,20,57,5.10
2020,11,25,20,58,5.10
2020,11,25,20,59,5.10
2020,11,25,21,00,5.10
2020,11,25,21,01,5.10
2020,11,25,21,02,5.10
2020,11,25,21,03,5.10
2020,11,25,21,04,5.10
2020,11,25,21,05,5.10
2020,11,25,21,06,5.10
2020,11,25,21,07,5.10
2020,11,25,21,08,5.10
2020,11,25,21,09,5.10
2020,11,25,21,10,5.10
2020,11,25,21,11,5.10
2020,11,25,21,12,5.10
2020,11,25,21,13,5.10
2020,11,25,21,14,5.10
2020,11,25,21,15,5.10
2020,11,25,21,16,5.10
2020,11,25,21,17,5.10
2020,11,25,21,18,5.10
2020,11,25,21,19,5.10
2020,11,25,21,20,5.10
2020,11,25,21,21,5.10
2020,11,25,21,22,5.10
2020,11,25,21,23,5.10
2020,11,25,21,24,5.10
2020,11,25,21,25,5.10
2020,11,25,21,26,5.10
2020,11,25,21,27,5.10
2020,11,25,21,28,5.10
2020,11,25,21,29,5.10
2020,11,25,21,30,5.10
2020,11,25,21,31,5.10
2020,11,25,21,32,5.10
2020,11,25,21,33,5.10
2020,11,25,21,34,5.10
2020,11,25,21,35,5.10
2020,11,25,21,36,5.10
2020,11,25,21,37,5.10
2020,11,25,21,38,5.10
2020,11,25,21,39,5.10
2020,11,25,21,40,5.00
2020,11,25,21,41,5.10
2020,11,25,21,42,5.10
2020,11,25,21,43,5.10
2020,11,25,21,44,5.00
2020,11,25,21,45,5.10
2020,11,25,21,46,5.10
2020,11,25,21,47,5.10
2020,11,25,21,48,5.10
2020,11,25,21,49,5.10
2020,11,25,21,50,5.10
2020,11,25,21,51,5.10
2020,11,25,21,52,5.10
2020,11,25,21,53,5.10
2020,11,25,21,54,5.10
2020,11,25,21,55,5.10
2020,11,25,21,56,5.10
2020,11,25,21,57,5.10
2020,11,25,21,58,5.10
2020,11,25,21,59,5.10
2020,11,25,22,00,5.10
2020,11,25,22,01,5.10
2020,11,25,22,02,5.10
2020,11,25,22,03,5.10
2020,11,25,22,04,5.00
2020,11,25,22,05,5.10
2020,11,25,22,06,5.10
2020,11,25,22,07,5.00
2020,11,25,22,08,5.00
2020,11,25,22,09,5.00
2020,11,25,22,10,5.00
2020,11,25,22,11,5.00
2020,11,25,22,12,5.00
2020,11,25,22,13,5.00
2020,11,25,22,14,5.00
2020,11,25,22,15,5.00
2020,11,25,22,16,5.00
2020,11,25,22,17,5.00
2020,11,25,22,18,5.10
2020,11,25,22,19,5.00